Location: Caltech
(34.1382°N, 118.1253°W)
Time: 12:14:52
(UTC-07:00)

Iridium 91 - Visible Passes

Search period start: 20 June 2018 00:00
Search period end: 30 June 2018 00:00
Orbit: 776 x 779 km, 86.4° (Epoch: 20 June)

Date Brightness Start Highest point End Pass type
(mag) Time Alt. Az. Time Alt. Az. Time Alt. Az.
20 Jun 6.5 03:04:51 10° NNE 03:09:47 42° E 03:12:40 22° SE visible
20 Jun 7.1 04:46:42 10° NW 04:50:05 18° W 04:53:06 11° WSW visible
21 Jun 7.5 02:32:05 10° NNE 02:36:06 22° E 02:38:50 15° ESE visible
21 Jun 6.3 04:12:10 10° NNW 04:16:49 34° W 04:19:17 22° SW visible
22 Jun 8.1 02:00:48 10° ENE 02:02:17 11° ENE 02:03:44 10° E visible
22 Jun 5.5 03:38:15 10° N 03:43:26 66° W 03:45:28 36° SSW visible
23 Jun 5.8 03:04:45 10° N 03:09:57 64° E 03:11:41 40° SSE visible
23 Jun 7.5 04:48:18 10° WNW 04:49:59 12° WNW 04:51:40 10° W visible
24 Jun 6.9 02:31:39 10° NNE 02:36:19 32° E 02:37:54 27° ESE visible
24 Jun 6.8 04:12:46 10° NNW 04:16:47 23° W 04:18:22 20° WSW visible
25 Jun 7.7 01:59:13 10° NE 02:02:35 17° ENE 02:04:10 15° E visible
25 Jun 5.9 03:38:33 10° NNW 03:43:28 44° W 03:44:37 38° WSW visible
26 Jun 5.4 03:04:48 10° N 03:10:02 86° W 03:10:53 64° S visible
27 Jun 6.1 02:31:27 10° N 02:36:30 48° E 02:37:10 45° ESE visible
27 Jun 7.2 04:13:46 10° NW 04:16:43 15° W 04:17:37 15° W visible
28 Jun 7.1 01:58:33 10° NNE 02:02:50 25° E 02:03:28 25° E visible
28 Jun 6.5 03:39:00 10° NNW 03:43:28 29° W 03:43:55 29° W visible
29 Jun 7.9 01:26:41 10° NE 01:29:02 13° ENE 01:29:47 13° E visible
29 Jun 5.6 03:05:00 10° N 03:10:06 57° W 03:10:14 57° W visible
